User: anonymous   Login
Location: Unspecified
(0.0000°N, 0.0000°E)
Time: 07:39:21
(UTC+00:00)
Language:

USA 176 - Orbit

View from above orbital plane
View from above orbital plane
View from above satellite
View from above satellite

Ground track
Ground track

The orbit data is extracted from the following two-line orbital elements,

1 28158U 04004A   19049.93261010 -.00000230 +00000-0 +00000-0 0  9993
2 28158 008.5477 042.0045 0000832 356.2277 173.4375 01.00269374006106
Epoch (UTC): 18 February 2019 22:22:57
Eccentricity: 0.0000832
inclination: 8.5477°
perigee height: 35783 km
apogee height: 35790 km
right ascension of ascending node: 42.0045°
argument of perigee: 356.2277°
revolutions per day: 1.00269374
mean anomaly at epoch: 173.4375°
orbit number at epoch: 610

The dashed part of the orbit path shows where the satellite is in the earth's shadow,  

DLR